Wind_Speed
9 10 11 13 13 12 11 11 15 15 14 14 12 10 11 12 13 16 14 12 11 11 14 15 16 15 15 16 14 14 14 14 13 12 14 15 16 18 19 18 19 18 18 17 16 15 15 15 15
8 9 9 5 12 11 9 9 14 11 13 12 10 9 9 12 13 13 14 13 12 11 12 14 16 15 14 15 13 13 12 12 12 11 12 13 14 16 17 17 18 18 17 16 15 13 12 11 12
8 9 7 3 1 7 9 10 10 11 11 10 9 8 9 12 13 11 12 14 13 11 12 13 15 14 13 12 12 10 9 9 9 9 10 10 13 14 15 16 16 17 16 15 14 13 11 9 9
7 6 6 3 4 3 6 7 9 9 10 10 9 8 8 9 11 12 12 13 13 12 12 13 13 12 10 9 10 9 7 7 7 7 7 9 11 12 14 14 16 16 15 14 13 12 10 8 8
8 7 7 3 3 2 6 6 8 9 9 9 10 9 7 8 9 11 11 13 12 12 11 12 12 10 9 7 8 7 7 5 3 4 5 9 10 11 12 12 13 15 14 12 12 10 9 9 9
6 6 6 7 7 7 7 7 7 7 8 8 9 8 7 6 8 10 11 12 13 11 10 10 10 9 8 7 6 5 7 6 6 4 5 8 12 13 12 11 11 13 12 10 9 12 9 10 9
7 11 4 6 5 5 8 10 8 7 8 8 8 8 8 7 9 10 12 11 13 12 10 8 8 7 8 4 5 5 7 10 15 13 13 4 9 10 13 12 12 11 10 8 8 9 9 8 8
8 9 6 6 5 7 8 8 9 7 5 8 9 9 10 9 9 12 14 13 12 13 11 9 7 7 7 5 6 6 7 9 11 16 18 12 5 8 9 9 12 13 10 8 8 7 7 8 6
12 10 10 6 4 5 7 8 7 6 6 6 7 7 6 7 10 10 11 15 13 12 11 10 7 6 5 8 6 6 7 9 10 10 14 15 16 7 5 10 9 9 11 9 9 8 8 6 8
1 19 8 6 6 6 9 8 7 5 5 6 6 7 8 10 12 9 8 13 12 10 11 9 9 7 5 5 4 7 7 9 11 12 15 13 13 13 8 12 10 8 7 4 4 10 9 6 7
12 7 11 10 9 8 7 9 6 7 7 6 5 8 9 9 9 9 9 8 8 10 10 8 9 6 5 3 3 5 4 8 9 10 12 12 9 10 10 10 6 7 8 5 4 7 8 9 6
15 11 11 9 8 6 3 4 6 7 10 4 6 8 8 9 10 12 10 8 8 11 9 7 9 9 6 4 4 4 4 6 8 11 13 13 12 8 6 5 6 8 6 7 5 7 8 7 7
11 10 9 7 6 4 2 1 4 4 1 4 7 8 7 8 10 10 11 9 12 10 8 7 11 11 7 7 7 6 4 6 6 10 11 12 12 8 8 7 4 4 5 4 6 7 8 8 9
14 11 9 7 6 5 5 4 1 1 2 4 8 11 8 8 8 10 11 10 11 9 10 8 13 12 9 9 8 6 4 5 6 8 10 8 7 9 8 7 6 3 3 4 4 5 4 7 7
15 13 11 9 7 8 8 7 7 4 2 2 1 4 10 9 8 12 10 9 10 9 9 8 12 13 12 11 8 6 5 3 4 5 7 2 2 10 11 4 3 4 4 4 3 3 3 1 3
14 11 11 9 9 8 5 12 10 8 7 7 4 4 6 6 6 6 7 6 9 9 10 9 11 15 14 11 8 7 6 5 4 3 4 7 6 9 9 8 3 5 5 4 2 2 3 1 1
3 10 10 8 7 8 6 9 10 12 12 10 6 5 6 7 7 6 5 2 4 9 11 12 14 16 14 11 6 7 7 6 4 2 3 5 6 7 9 8 5 5 6 5 3 4 4 4 2
13 6 2 0 4 4 8 7 7 10 13 15 11 6 5 6 6 6 6 2 1 3 10 12 15 17 16 11 8 8 9 7 5 3 1 0 4 5 5 6 7 5 7 9 8 6 7 7 4
15 14 8 6 3 2 5 5 6 6 9 12 13 12 9 4 5 5 5 6 3 2 8 13 18 18 14 11 9 9 9 8 7 5 5 4 4 6 6 5 6 8 8 9 9 9 9 8 12
12 10 5 6 2 2 3 4 5 5 5 6 9 12 13 12 7 2 3 6 6 5 6 13 16 17 14 12 11 12 12 11 10 7 5 5 7 7 6 5 6 7 8 10 11 10 11 11 13
8 3 6 6 2 3 2 4 5 5 3 4 6 8 9 10 12 10 6 1 4 7 8 9 13 15 15 16 16 12 14 13 12 9 6 5 7 9 8 6 8 9 10 12 12 12 12 13 14
10 7 6 1 4 8 4 16 4 6 5 6 9 4 5 5 6 9 9 8 4 5 10 11 12 13 15 17 16 15 16 15 13 9 8 7 8 9 10 11 9 11 22 19 15 12 10 11 13
6 7 3 4 2 7 10 5 14 13 9 5 8 5 1 3 4 3 5 6 8 6 5 12 12 13 15 14 16 14 16 13 15 10 7 9 7 7 7 8 11 14 18 14 9 14 5 6 9
5 4 8 6 5 18 13 3 7 8 6 5 8 8 6 3 3 7 7 2 3 5 4 9 11 13 15 15 13 13 12 7 7 6 7 7 7 9 10 10 11 14 17 13 9 2 3 8 9
3 2 6 7 9 16 10 6 17 12 11 10 10 9 6 5 7 9 8 9 4 1 2 5 11 11 12 12 12 11 9 6 4 5 5 6 8 11 12 14 15 13 14 12 8 5 5 8 3
8 4 6 2 6 9 4 9 4 3 8 13 13 9 7 9 9 9 8 6 5 4 3 5 6 10 9 9 11 11 9 7 5 6 7 8 10 13 14 15 14 14 13 13 13 16 7 2 4
6 2 6 6 7 7 18 9 12 13 13 18 14 15 9 8 9 6 6 6 6 4 5 5 6 6 8 8 7 6 5 5 6 8 9 8 9 10 11 11 9 10 12 12 11 10 9 2 3
13 10 4 8 6 3 6 2 15 8 17 19 17 18 14 10 9 8 7 6 4 5 4 7 9 9 9 9 9 8 6 5 7 9 11 6 8 11 12 11 10 11 12 9 7 6 5 4 6
1 3 1 3 7 5 10 6 6 17 22 13 17 15 15 12 10 8 8 7 5 7 7 8 9 9 9 6 4 5 5 5 3 1 4 6 10 11 12 10 10 10 11 10 8 8 7 9 12
13 12 9 6 5 18 9 16 6 10 9 7 11 15 15 8 9 10 9 9 8 8 8 9 8 6 6 7 7 7 7 6 7 7 8 8 10 11 10 10 9 10 10 10 6 3 6 10 14
Wind_Direction
122 104 101 92 88 76 96 137 152 148 139 135 135 139 133 118 115 116 110 108 117 123 130 129 127 117 114 109 108 106 105 106 101 99 96 95 94 95 98 102 101 99 99 99 98 97 100 104 103
135 113 99 95 119 104 99 127 150 155 149 140 143 144 135 125 122 122 114 111 113 127 132 130 129 118 115 109 108 105 108 110 106 105 103 101 99 100 102 106 106 104 103 102 101 100 99 101 99
143 124 122 98 247 121 131 131 150 155 158 155 157 152 135 131 126 123 119 112 117 132 137 132 131 121 113 108 104 102 106 107 112 112 111 112 108 105 105 107 108 107 109 109 106 104 106 107 103
148 134 132 159 150 268 173 154 151 153 159 170 178 163 144 134 135 136 130 116 117 136 143 134 134 123 111 104 102 101 100 108 119 117 128 131 120 108 108 112 113 111 109 112 110 109 104 112 115
158 152 145 129 169 189 171 177 180 174 184 184 185 165 157 145 141 141 136 124 121 134 141 135 139 130 114 106 98 88 94 89 114 135 163 149 134 113 108 110 115 111 104 103 105 108 111 112 120
161 158 163 200 217 218 214 197 189 189 192 194 196 190 182 165 158 155 148 140 133 135 141 143 141 133 121 105 96 81 70 52 12 320 226 179 141 124 114 109 107 107 105 103 99 91 106 104 120
161 126 167 225 216 218 210 208 193 186 193 200 200 203 206 184 179 174 161 158 148 142 143 145 149 136 124 102 92 86 71 57 38 354 323 176 143 125 115 117 105 98 93 95 97 88 96 107 135
179 156 213 212 208 224 221 205 205 198 207 229 217 209 201 203 205 183 189 172 167 153 153 145 145 135 130 117 93 86 72 78 52 61 62 51 143 128 114 120 101 84 79 79 95 91 90 91 122
151 161 153 203 187 208 213 211 215 216 215 202 204 202 193 211 211 199 216 199 189 163 155 153 149 139 104 96 94 83 81 71 61 57 63 69 76 133 147 122 112 79 74 86 88 92 84 95 110
183 138 142 184 159 235 186 202 203 213 209 203 208 210 208 190 188 190 175 196 204 194 176 161 159 152 125 118 112 110 90 79 65 62 63 77 60 57 62 129 78 85 68 83 95 87 85 96 111
166 137 176 185 179 190 195 203 204 210 200 204 223 200 209 215 214 212 199 182 212 201 176 174 179 169 140 127 139 144 95 83 68 74 60 67 31 66 85 125 70 82 64 69 115 101 87 83 76
172 186 192 189 181 178 162 212 201 244 153 223 220 215 218 227 235 226 218 230 214 201 188 205 194 179 156 142 169 143 124 92 69 61 58 65 80 98 86 124 104 77 86 75 94 103 98 69 70
164 162 169 179 169 165 141 271 249 294 213 215 219 220 224 237 222 225 230 220 218 229 214 176 188 184 158 153 165 152 147 96 71 66 62 58 75 81 100 115 66 46 45 99 100 108 100 77 75
152 143 140 142 145 126 112 79 25 187 202 237 243 248 232 229 228 220 193 206 214 207 192 171 185 186 167 159 163 165 149 109 79 62 54 59 75 84 86 83 82 81 68 113 100 111 115 70 93
134 123 126 128 124 132 127 107 76 74 96 79 281 232 216 234 225 208 193 198 205 208 188 177 191 184 175 165 170 174 172 138 107 59 40 61 53 77 86 95 85 62 88 71 74 116 166 25 116
117 120 130 123 133 114 154 84 89 92 87 88 86 119 172 197 195 187 186 204 207 216 225 209 209 188 182 180 178 191 183 164 138 177 95 47 75 77 73 77 70 64 69 59 97 154 141 181 129
57 110 89 108 86 93 131 90 91 88 80 74 92 130 139 145 148 159 163 187 232 227 241 223 204 195 185 184 191 203 206 186 184 196 99 58 76 61 45 26 37 22 17 18 15 274 200 188 229
179 131 155 199 85 127 92 83 74 80 81 75 70 92 151 171 180 182 190 232 279 244 219 199 194 196 191 199 207 206 213 210 218 252 270 61 44 38 26 5 337 348 337 336 341 337 301 260 247
155 148 158 124 89 76 78 57 41 57 75 79 77 78 74 137 194 184 205 223 193 175 193 209 198 195 200 209 203 218 221 225 220 243 273 280 355 354 1 355 337 334 318 307 307 312 312 310 312
120 116 160 154 130 42 42 40 12 22 47 67 74 73 73 68 68 120 217 238 217 190 199 201 193 191 201 212 220 242 220 223 232 239 260 303 333 330 314 354 337 325 316 310 302 295 291 298 312
149 118 209 232 247 43 237 46 19 336 356 30 46 65 60 72 76 72 77 127 228 216 211 192 192 199 209 218 238 237 226 225 227 245 253 290 317 326 323 338 329 337 318 304 296 292 288 296 305
195 179 170 234 253 314 5 307 40 335 328 338 354 11 46 56 80 83 73 63 53 236 227 212 200 207 224 239 246 241 226 232 237 247 271 302 320 325 337 327 350 338 326 321 277 264 268 288 302
178 183 213 4 279 287 264 332 339 322 319 342 15 21 353 16 29 44 90 78 54 34 268 230 221 225 231 242 253 252 242 245 245 264 279 299 310 325 325 340 341 347 344 345 260 254 234 290 305
139 112 50 22 346 262 22 222 244 37 8 44 48 37 22 344 345 347 329 343 27 24 343 211 214 221 230 245 252 255 242 245 244 246 273 281 294 311 323 331 336 339 1 6 322 312 320 300 270
120 201 6 281 337 60 17 29 33 59 54 41 27 22 352 329 303 325 332 300 265 277 59 196 209 207 214 227 243 234 205 200 195 236 245 267 296 307 317 321 327 343 350 2 330 294 300 347 333
287 234 287 296 243 309 138 309 330 343 336 339 347 354 358 354 316 305 315 304 262 229 199 133 189 189 190 192 185 172 171 187 202 242 262 295 311 320 325 330 334 338 341 344 1 272 256 329 330
236 324 232 211 283 236 278 183 292 287 298 318 324 325 319 308 323 328 301 302 277 198 192 184 159 166 168 166 178 183 199 222 253 269 286 302 327 335 343 345 357 344 337 343 346 351 14 316 349
188 230 203 204 216 208 314 293 243 282 311 299 303 311 311 285 304 325 312 297 270 182 204 190 184 192 190 189 198 205 223 254 280 294 294 282 333 339 338 340 344 1 7 345 310 304 309 312 249
192 139 296 333 331 354 316 257 328 305 302 289 303 323 324 298 287 305 306 306 292 208 204 203 198 198 207 201 208 216 223 249 225 354 326 322 326 334 336 341 345 354 359 2 337 271 275 257 263
212 241 191 243 287 217 257 277 148 337 306 311 315 321 325 316 295 298 299 297 271 221 204 206 202 199 195 199 208 209 210 212 233 285 300 316 329 334 333 335 342 346 346 344 345 317 258 253 255
Height
5887 5889 5889 5887 5890 5888 5889 5891 5891 5892 5893 5894 5894 5895 5896 5895 5894 5897 5896 5896 5896 5897 5897 5897 5898 5899 5898 5897 5897 5896 5895 5894 5894 5893 5893 5892 5892 5891 5891 5891 5891 5892 5892 5893 5893 5894 5894 5895 5895
5890 5890 5890 5889 5888 5890 5892 5892 5893 5895 5895 5896 5897 5897 5896 5896 5897 5897 5897 5898 5899 5899 5899 5899 5900 5900 5900 5899 5899 5899 5898 5897 5896 5896 5895 5895 5894 5893 5893 5894 5893 5894 5894 5895 5896 5896 5897 5898 5898
5890 5890 5892 5891 5877 5888 5893 5894 5895 5896 5898 5898 5898 5898 5898 5898 5898 5900 5899 5899 5900 5901 5901 5901 5902 5902 5903 5902 5901 5901 5900 5899 5898 5898 5898 5897 5896 5896 5895 5895 5896 5896 5897 5897 5898 5899 5900 5900 5901
5891 5892 5894 5895 5893 5893 5894 5896 5897 5898 5899 5900 5899 5899 5900 5900 5900 5900 5900 5901 5902 5903 5903 5903 5904 5904 5905 5904 5904 5904 5903 5902 5901 5900 5899 5899 5898 5898 5898 5897 5898 5898 5899 5900 5900 5901 5901 5903 5904
5891 5892 5894 5889 5895 5894 5896 5897 5898 5898 5899 5900 5900 5900 5901 5900 5902 5902 5903 5903 5904 5904 5905 5906 5906 5906 5907 5907 5907 5906 5905 5904 5903 5901 5900 5898 5900 5900 5900 5900 5900 5900 5901 5903 5903 5903 5904 5904 5905
5892 5894 5896 5895 5895 5896 5897 5898 5898 5898 5899 5900 5901 5901 5902 5902 5903 5904 5904 5905 5905 5906 5907 5908 5908 5908 5909 5909 5908 5908 5908 5907 5904 5903 5898 5898 5899 5902 5902 5902 5903 5903 5903 5904 5905 5906 5906 5906 5907
5893 5895 5894 5895 5896 5897 5897 5897 5898 5898 5899 5900 5901 5902 5902 5902 5904 5905 5906 5906 5907 5908 5909 5909 5910 5911 5911 5911 5911 5911 5909 5910 5906 5902 5901 5901 5903 5903 5904 5905 5905 5906 5906 5906 5907 5907 5907 5907 5909
5894 5896 5895 5895 5897 5897 5897 5897 5898 5898 5899 5900 5901 5901 5902 5903 5904 5906 5907 5907 5908 5908 5910 5911 5912 5913 5913 5913 5913 5913 5912 5911 5909 5907 5905 5903 5904 5906 5906 5907 5907 5908 5908 5909 5909 5909 5909 5909 5910
5895 5895 5894 5896 5897 5897 5897 5897 5898 5898 5899 5900 5901 5901 5902 5903 5903 5905 5906 5908 5909 5910 5911 5912 5913 5914 5915 5915 5914 5915 5915 5915 5913 5910 5909 5907 5907 5907 5907 5908 5909 5910 5910 5911 5912 5911 5911 5910 5911
5892 5890 5892 5896 5896 5897 5898 5898 5898 5899 5899 5900 5900 5901 5901 5903 5903 5904 5906 5908 5910 5911 5912 5913 5914 5915 5916 5917 5917 5917 5917 5916 5915 5914 5911 5910 5910 5909 5909 5910 5910 5911 5911 5912 5913 5913 5913 5913 5913
5894 5890 5894 5895 5896 5897 5897 5898 5900 5898 5899 5899 5901 5901 5901 5902 5903 5904 5906 5908 5910 5911 5913 5913 5914 5915 5916 5918 5919 5918 5919 5918 5917 5916 5914 5913 5911 5911 5911 5913 5913 5913 5913 5913 5914 5913 5914 5915 5915
5896 5895 5894 5895 5896 5898 5899 5898 5899 5899 5870 5899 5900 5901 5901 5902 5903 5904 5905 5907 5909 5911 5912 5913 5915 5916 5917 5918 5920 5919 5920 5920 5919 5917 5917 5915 5913 5913 5913 5914 5915 5915 5914 5914 5915 5915 5916 5917 5917
5897 5896 5896 5896 5897 5899 5900 5900 5900 5897 5899 5898 5901 5901 5901 5902 5902 5903 5905 5907 5908 5910 5912 5913 5914 5916 5917 5918 5920 5921 5921 5921 5921 5919 5918 5917 5915 5915 5915 5916 5916 5916 5916 5916 5917 5916 5918 5918 5918
5896 5897 5897 5898 5899 5901 5902 5902 5902 5901 5900 5900 5900 5900 5900 5901 5902 5902 5903 5906 5907 5909 5911 5912 5914 5916 5917 5919 5920 5922 5922 5922 5922 5921 5919 5918 5915 5916 5916 5917 5917 5917 5917 5918 5917 5918 5919 5919 5920
5898 5900 5900 5901 5902 5903 5903 5903 5901 5901 5900 5899 5899 5898 5899 5900 5901 5902 5903 5906 5907 5909 5910 5912 5914 5916 5917 5918 5920 5922 5922 5923 5923 5922 5921 5916 5916 5913 5916 5918 5918 5918 5917 5917 5918 5918 5919 5919 5919
5902 5903 5899 5902 5904 5905 5905 5904 5903 5902 5900 5899 5899 5899 5899 5900 5901 5903 5905 5907 5908 5910 5910 5912 5914 5916 5918 5919 5921 5922 5923 5923 5923 5922 5921 5919 5917 5917 5919 5919 5919 5918 5918 5918 5919 5918 5917 5918 5919
5906 5902 5893 5903 5906 5907 5906 5907 5905 5903 5901 5900 5900 5900 5900 5901 5903 5904 5906 5907 5908 5908 5909 5911 5913 5915 5918 5920 5921 5922 5923 5923 5923 5922 5921 5921 5919 5921 5920 5922 5921 5921 5920 5920 5919 5918 5914 5916 5918
5911 5911 5909 5910 5909 5908 5908 5908 5908 5906 5903 5902 5902 5901 5902 5902 5903 5904 5906 5907 5908 5907 5909 5910 5912 5915 5917 5920 5921 5922 5922 5923 5923 5922 5922 5922 5920 5922 5921 5922 5923 5922 5922 5921 5921 5920 5919 5916 5917
5907 5911 5913 5911 5910 5909 5909 5911 5911 5909 5907 5905 5904 5903 5902 5902 5903 5904 5905 5906 5906 5906 5907 5910 5911 5914 5917 5919 5921 5922 5922 5923 5922 5923 5923 5923 5922 5922 5921 5922 5922 5923 5922 5920 5919 5919 5918 5917 5917
5910 5913 5915 5912 5911 5911 5912 5912 5912 5912 5911 5908 5906 5905 5904 5904 5904 5904 5905 5907 5906 5906 5907 5908 5911 5913 5916 5918 5920 5921 5922 5922 5922 5922 5923 5923 5923 5923 5921 5920 5921 5920 5921 5920 5919 5919 5918 5917 5916
5912 5914 5915 5914 5913 5914 5915 5913 5912 5914 5913 5910 5908 5907 5907 5907 5906 5905 5906 5906 5906 5906 5907 5908 5910 5912 5914 5917 5918 5920 5921 5921 5923 5922 5923 5923 5923 5922 5921 5920 5920 5920 5919 5919 5918 5917 5917 5915 5915
5917 5913 5912 5913 5912 5905 5916 5912 5905 5913 5914 5912 5909 5908 5908 5909 5908 5907 5907 5907 5906 5906 5906 5907 5909 5912 5914 5915 5917 5919 5920 5920 5922 5922 5922 5923 5922 5922 5921 5918 5916 5917 5913 5908 5910 5914 5914 5915 5914
5911 5913 5913 5914 5915 5923 5918 5919 5910 5912 5914 5912 5910 5909 5909 5909 5910 5909 5909 5908 5906 5906 5906 5907 5908 5911 5913 5914 5916 5917 5919 5920 5922 5923 5923 5922 5921 5921 5920 5920 5918 5916 5915 5910 5909 5912 5913 5914 5914
5912 5914 5915 5916 5918 5912 5903 5924 5890 5908 5912 5911 5910 5910 5910 5909 5909 5909 5908 5908 5908 5906 5905 5905 5907 5909 5912 5913 5914 5915 5918 5920 5922 5923 5923 5922 5921 5921 5920 5920 5919 5917 5914 5911 5910 5910 5911 5914 5914
5913 5917 5913 5918 5918 5911 5916 5919 5907 5911 5913 5912 5911 5910 5910 5910 5909 5909 5909 5908 5907 5907 5906 5905 5906 5908 5909 5910 5912 5914 5916 5918 5920 5922 5922 5921 5920 5919 5919 5919 5919 5917 5915 5914 5913 5912 5912 5912 5914
5914 5916 5918 5920 5921 5919 5919 5915 5914 5915 5913 5912 5910 5910 5910 5909 5909 5909 5909 5908 5907 5907 5907 5906 5907 5907 5909 5910 5912 5913 5915 5918 5919 5921 5922 5921 5920 5919 5918 5918 5918 5916 5916 5915 5913 5911 5913 5914 5914
5916 5916 5919 5919 5921 5921 5917 5909 5914 5914 5913 5911 5909 5908 5909 5908 5908 5908 5908 5908 5907 5907 5908 5908 5908 5910 5910 5912 5913 5915 5916 5918 5919 5919 5920 5920 5919 5918 5918 5917 5918 5916 5915 5914 5913 5913 5912 5912 5912
5910 5913 5918 5918 5915 5917 5918 5917 5908 5911 5911 5910 5908 5907 5906 5906 5906 5906 5906 5907 5907 5907 5908 5908 5908 5910 5911 5913 5914 5915 5916 5917 5919 5919 5918 5919 5918 5918 5917 5917 5916 5915 5913 5913 5912 5911 5911 5910 5911
5909 5912 5915 5916 5915 5914 5918 5912 5913 5909 5909 5907 5905 5906 5904 5903 5904 5903 5904 5905 5907 5907 5907 5908 5909 5911 5912 5913 5915 5916 5917 5917 5918 5918 5918 5917 5917 5916 5916 5915 5915 5913 5912 5911 5910 5909 5908 5909 5909
5910 5913 5911 5915 5914 5914 5917 5908 5907 5909 5906 5905 5905 5903 5902 5901 5901 5901 5901 5902 5904 5905 5906 5907 5909 5911 5912 5912 5913 5914 5915 5916 5916 5916 5916 5916 5915 5915 5914 5914 5913 5912 5910 5909 5908 5907 5906 5906 5906